Santuari del Far - Susqueda





Hora UTC 13:15
Temperatura 9.8 ºC
Humitat 57.0 %
Pressió 1020.0 hPa
Pluja 0.0 mm
Velocitat vent 3.2 km/h
Direcció vent N

Dades diàries 2021-01-17



Hora UTC (hivern +1h; estiu +2h)
Temperatura (ºC) Humitat (%) Pressió (hPa) Velocitat vent (km/h) Precipitació (mm)
Hora UTC Aire Humitat Pressió Vel. Dir. Vel. Max Dir. Intent. màx 5 min.
00:05 5.8 50.0 1023.4 14.5 N 14.5 0.0
00:10 5.8 50.0 1023.4 17.7 N 19.3 0.0
00:15 6.1 49.0 1023.5 12.9 N 19.3 0.0
00:20 6.3 49.0 1023.4 14.5 N 17.7 0.0
00:25 6.4 48.0 1023.2 16.1 N 20.9 0.0
00:30 6.4 49.0 1022.9 11.3 N 22.5 0.0
00:35 6.4 50.0 1023.1 16.1 N 22.5 0.0
00:40 6.3 51.0 1023.1 16.1 N 22.5 0.0
00:45 6.2 51.0 1023.0 16.1 N 22.5 0.0
00:50 5.9 52.0 1023.1 19.3 N 22.5 0.0
00:55 5.9 53.0 1023.0 16.1 N 20.9 0.0
01:00 5.8 54.0 1023.0 12.9 N 20.9 0.0
01:05 5.7 55.0 1022.8 14.5 N 20.9 0.0
01:10 5.7 55.0 1022.8 17.7 N 20.9 0.0
01:15 5.8 55.0 1022.7 14.5 N 20.9 0.0
01:20 5.8 55.0 1022.7 16.1 N 20.9 0.0
01:25 5.9 54.0 1022.6 16.1 N 19.3 0.0
01:30 6.1 54.0 1022.4 14.5 N 19.3 0.0
01:35 6.2 53.0 1022.6 16.1 N 20.9 0.0
01:40 6.3 51.0 1022.7 16.1 N 22.5 0.0
01:45 6.3 51.0 1022.4 11.3 N 22.5 0.0
01:50 6.2 51.0 1022.4 16.1 N 19.3 0.0
01:55 6.1 53.0 1022.2 12.9 N 19.3 0.0
02:00 6.1 53.0 1022.2 16.1 N 22.5 0.0
02:05 6.2 53.0 1022.2 19.3 N 22.5 0.0
02:10 6.2 54.0 1022.3 12.9 N 22.5 0.0
02:15 6.2 55.0 1022.1 14.5 N 22.5 0.0
02:20 6.2 55.0 1022.0 14.5 N 24.1 0.0
02:25 6.2 55.0 1022.1 12.9 N 24.1 0.0
02:30 6.3 55.0 1022.0 17.7 N 22.5 0.0
02:35 6.4 54.0 1022.0 20.9 N 24.1 0.0
02:40 6.7 54.0 1022.0 12.9 N 24.1 0.0
02:45 6.8 53.0 1022.0 17.7 N 22.5 0.0
02:50 6.8 53.0 1022.1 12.9 N 25.7 0.0
02:55 6.7 52.0 1022.1 14.5 N 25.7 0.0
03:00 6.6 53.0 1022.1 8.0 N 20.9 0.0
03:05 6.5 53.0 1022.1 8.0 N 22.5 0.0
03:10 6.6 54.0 1022.1 11.3 N 25.7 0.0
03:15 6.7 53.0 1022.1 9.7 N 25.7 0.0
03:20 6.6 52.0 1022.0 12.9 N 19.3 0.0
03:25 6.4 53.0 1021.9 14.5 N 19.3 0.0
03:30 6.1 53.0 1021.7 12.9 N 22.5 0.0
03:35 6.1 54.0 1021.7 16.1 N 22.5 0.0
03:40 6.3 53.0 1021.8 16.1 N 20.9 0.0
03:45 6.4 52.0 1021.7 12.9 N 20.9 0.0
03:50 6.6 52.0 1021.7 11.3 N 20.9 0.0
03:55 6.8 53.0 1021.7 12.9 N 22.5 0.0
04:00 7.1 52.0 1021.7 12.9 N 22.5 0.0
04:05 7.2 52.0 1021.6 16.1 N 24.1 0.0
04:10 7.3 52.0 1021.5 14.5 N 24.1 0.0
04:15 7.3 53.0 1021.5 17.7 N 20.9 0.0
04:20 7.3 52.0 1021.4 12.9 N 20.9 0.0
04:25 7.2 53.0 1021.4 14.5 N 22.5 0.0
04:30 7.4 53.0 1021.2 11.3 N 24.1 0.0
04:35 7.5 53.0 1021.0 16.1 N 24.1 0.0
04:40 7.5 53.0 1021.0 17.7 N 24.1 0.0
04:45 7.6 53.0 1021.0 19.3 N 22.5 0.0
04:50 7.6 54.0 1021.1 20.9 N 22.5 0.0
04:55 7.7 53.0 1021.1 14.5 N 24.1 0.0
05:00 7.9 52.0 1021.2 14.5 N 24.1 0.0
05:05 8.0 52.0 1020.9 14.5 N 22.5 0.0
05:10 8.1 52.0 1020.9 11.3 N 27.4 0.0
05:15 8.1 51.0 1021.0 12.9 N 27.4 0.0
05:20 8.1 52.0 1021.1 12.9 N 24.1 0.0
05:25 8.1 52.0 1021.0 14.5 N 17.7 0.0
05:30 7.9 52.0 1021.2 14.5 N 20.9 0.0
05:35 7.9 52.0 1021.3 14.5 N 20.9 0.0
05:40 7.8 52.0 1021.3 9.7 N 16.1 0.0
05:45 7.7 53.0 1021.5 11.3 N 16.1 0.0
05:50 7.6 53.0 1021.5 11.3 N 17.7 0.0
05:55 7.6 53.0 1021.4 16.1 N 17.7 0.0
06:00 7.6 53.0 1021.4 11.3 N 19.3 0.0
06:05 7.8 53.0 1021.6 11.3 N 22.5 0.0
06:10 8.0 53.0 1021.7 9.7 N 22.5 0.0
06:15 8.0 53.0 1021.7 1.6 N 17.7 0.0
06:20 8.0 52.0 1021.4 11.3 N 17.7 0.0
06:25 8.1 53.0 1021.6 4.8 N 17.7 0.0
06:30 8.1 53.0 1021.5 8.0 N 20.9 0.0
06:35 8.2 52.0 1021.4 12.9 N 20.9 0.0
06:40 8.4 52.0 1021.5 4.8 N 16.1 0.0
06:45 8.6 51.0 1021.5 9.7 N 16.1 0.0
06:50 8.8 51.0 1021.6 4.8 N 12.9 0.0
06:55 9.0 51.0 1021.7 4.8 N 12.9 0.0
07:00 9.1 50.0 1021.6 12.9 N 14.5 0.0
07:05 9.2 50.0 1021.6 4.8 N 14.5 0.0
07:10 9.3 50.0 1021.4 6.4 N 14.5 0.0
07:15 9.3 50.0 1021.5 11.3 N 14.5 0.0
07:20 9.3 50.0 1021.4 3.2 N 16.1 0.0
07:25 9.3 51.0 1021.3 4.8 N 17.7 0.0
07:30 9.2 51.0 1021.5 4.8 N 17.7 0.0
07:35 9.0 51.0 1021.6 4.8 N 12.9 0.0
07:40 9.0 51.0 1021.5 8.0 N 11.3 0.0
07:45 8.9 51.0 1021.6 4.8 N 11.3 0.0
07:50 8.8 51.0 1021.5 8.0 N 11.3 0.0
07:55 8.8 52.0 1021.6 6.4 N 11.3 0.0
08:00 8.7 51.0 1021.7 8.0 N 11.3 0.0
08:05 8.5 51.0 1021.8 4.8 N 8.0 0.0
08:10 8.3 51.0 1021.9 4.8 N 11.3 0.0
08:15 8.2 53.0 1021.8 1.6 N 11.3 0.0
08:20 8.1 53.0 1021.8 3.2 N 8.0 0.0
08:25 8.1 53.0 1021.7 1.6 N 8.0 0.0
08:30 8.2 53.0 1021.7 8.0 N 8.0 0.0
08:35 8.2 54.0 1021.8 3.2 N 8.0 0.0
08:40 8.4 54.0 1021.9 0.0 N 6.4 0.0
08:45 8.5 53.0 1021.9 3.2 N 6.4 0.0
08:50 8.7 53.0 1022.0 1.6 N 6.4 0.0
08:55 8.7 53.0 1022.2 1.6 N 11.3 0.0
09:00 8.7 52.0 1022.1 1.6 N 11.3 0.0
09:05 8.8 52.0 1022.0 3.2 N 6.4 0.0
09:10 8.8 52.0 1021.9 3.2 N 6.4 0.0
09:15 9.1 53.0 1021.9 1.6 N 6.4 0.0
09:20 9.3 54.0 1022.0 0.0 N 6.4 0.0
09:25 9.4 53.0 1022.1 3.2 N 3.2 0.0
09:30 9.6 51.0 1022.1 1.6 N 4.8 0.0
09:35 9.8 50.0 1022.1 4.8 N 6.4 0.0
09:40 10.1 50.0 1022.0 4.8 N 6.4 0.0
09:45 10.3 50.0 1022.0 3.2 N 6.4 0.0
09:50 10.6 50.0 1022.0 3.2 N 6.4 0.0
09:55 10.8 50.0 1022.2 4.8 N 4.8 0.0
10:00 11.1 49.0 1022.2 3.2 N 6.4 0.0
10:05 11.4 47.0 1022.2 4.8 N 8.0 0.0
10:10 11.4 47.0 1022.0 1.6 N 8.0 0.0
10:15 11.3 47.0 1022.1 1.6 N 9.7 0.0
10:20 11.3 47.0 1022.1 9.7 N 9.7 0.0
10:25 11.2 48.0 1022.0 11.3 N 14.5 0.0
10:30 11.0 48.0 1022.1 6.4 N 14.5 0.0
10:35 11.1 48.0 1022.0 11.3 N 16.1 0.0
10:40 11.1 49.0 1022.0 8.0 N 16.1 0.0
10:45 11.2 49.0 1022.1 4.8 N 12.9 0.0
10:50 11.2 49.0 1021.9 4.8 N 11.3 0.0
10:55 11.3 50.0 1021.8 9.7 N 14.5 0.0
11:00 11.4 50.0 1021.8 3.2 N 14.5 0.0
11:05 11.4 50.0 1021.7 4.8 N 9.7 0.0
11:10 11.6 51.0 1021.7 6.4 N 8.0 0.0
11:15 11.6 51.0 1021.6 1.6 N 9.7 0.0
11:20 11.7 50.0 1021.4 1.6 N 9.7 0.0
11:25 11.8 50.0 1021.4 3.2 N 8.0 0.0
11:30 11.9 50.0 1021.2 1.6 N 9.7 0.0
11:35 11.8 50.0 1021.2 1.6 N 9.7 0.0
11:40 11.6 49.0 1021.2 4.8 N 11.3 0.0
11:45 11.4 51.0 1021.1 0.0 N 11.3 0.0
11:50 11.4 50.0 1021.0 9.7 N 11.3 0.0
11:55 11.3 51.0 1021.0 1.6 N 11.3 0.0
12:00 11.3 51.0 1020.8 1.6 N 9.7 0.0
12:05 11.6 51.0 1020.9 4.8 N 9.7 0.0
12:10 11.8 51.0 1020.8 1.6 N 6.4 0.0
12:15 11.9 52.0 1020.8 3.2 N 9.7 0.0
12:20 11.9 51.0 1020.7 0.0 N 6.4 0.0
12:25 11.9 50.0 1020.5 3.2 N 4.8 0.0
12:30 11.7 50.0 1020.6 1.6 N 4.8 0.0
12:35 11.6 51.0 1020.6 0.0 N 3.2 0.0
12:40 11.5 52.0 1020.4 1.6 N 6.4 0.0
12:45 11.3 52.0 1020.4 0.0 N 6.4 0.0
12:50 11.0 52.0 1020.4 1.6 N 4.8 0.0
12:55 10.6 54.0 1020.1 0.0 N 4.8 0.0
13:00 10.4 55.0 1020.2 3.2 N 6.4 0.0
13:05 10.1 54.0 1020.3 0.0 N 6.4 0.0
13:10 9.9 56.0 1020.3 1.6 N 4.8 0.0
13:15 9.8 57.0 1020.0 3.2 N 4.8 0.0
Màxima 11.9 57.0 1023.5 20.9 N 27.4 0.0
Mínima 4.9 47.0 1020.0
Total 0.0